DD3UTS-13 Weather Reports


Display with metric or nautical units.
time (UTC)temp
F
wind
direction
speed
MPH
gust
MPH
rain 1hr
in
rain 24hr
in
rain mn
in
humidity
%
barometer
mb
20260503235531 61 195 5.0 0.0 0.00 0.00 0.00 51 1012.1
20260503235032 62 175 5.0 0.0 0.00 0.00 0.00 51 1012.1
20260503234532 62 202 5.0 0.0 0.00 0.00 0.00 51 1012.0
20260503234031 62 200 5.0 0.0 0.00 0.00 0.00 50 1012.1
20260503233531 62 180 4.0 0.0 0.00 0.00 0.00 50 1012.1
20260503233031 62 200 4.0 0.0 0.00 0.00 0.00 50 1012.1
20260503232532 63 235 3.0 0.0 0.00 0.00 0.00 49 1012.2
20260503232032 64 265 6.0 0.0 0.00 0.00 0.00 48 1012.1
20260503231532 64 265 6.0 0.0 0.00 0.00 0.00 47 1012.1
20260503231031 64 277 6.0 0.0 0.00 0.00 0.00 47 1012.0
20260503230532 64 267 5.0 0.0 0.00 0.00 0.00 47 1012.0
20260503230031 64 302 6.0 0.0 0.00 0.00 0.00 47 1012.0
20260503225532 64 287 7.0 0.0 0.00 0.00 0.00 47 1011.9
20260503225031 64 240 5.0 0.0 0.00 0.00 0.00 47 1011.9
20260503224531 65 267 9.0 0.0 0.00 0.00 0.00 46 1011.9
20260503224032 65 282 8.0 0.0 0.00 0.00 0.00 45 1011.8
20260503223532 65 267 8.0 0.0 0.00 0.00 0.00 45 1011.8
20260503223031 64 285 10.0 0.0 0.00 0.00 0.00 45 1011.7
20260503222531 64 262 5.0 0.0 0.00 0.00 0.00 45 1011.7
20260503222031 64 262 4.0 0.0 0.00 0.00 0.00 44 1011.6
20260503221531 65 260 6.0 0.0 0.00 0.00 0.00 43 1011.6
20260503221032 65 260 7.0 0.0 0.00 0.00 0.00 43 1011.5
20260503220532 65 225 6.0 0.0 0.00 0.00 0.00 43 1011.5
20260503220032 66 210 8.0 0.0 0.00 0.00 0.00 41 1011.4
20260503215532 65 245 9.0 0.0 0.00 0.00 0.00 42 1011.4
20260503215032 66 247 7.0 0.0 0.00 0.00 0.00 41 1011.4
20260503214531 66 255 6.0 0.0 0.00 0.00 0.00 41 1011.4
20260503214032 66 315 7.0 0.0 0.00 0.00 0.00 40 1011.3
20260503213532 67 267 8.0 0.0 0.00 0.00 0.00 40 1011.3
20260503213032 67 267 8.0 0.0 0.00 0.00 0.00 40 1011.2
20260503212532 67 315 6.0 0.0 0.00 0.00 0.00 39 1011.0
20260503212032 67 95 4.0 0.0 0.00 0.00 0.00 39 1010.9
20260503211532 68 282 6.0 0.0 0.00 0.00 0.00 39 1010.9
20260503211032 68 135 8.0 0.0 0.00 0.00 0.00 37 1010.9
20260503210531 69 145 11.0 0.0 0.00 0.00 0.00 37 1010.8
20260503210032 68 145 13.0 0.0 0.00 0.00 0.00 37 1010.6
20260503205531 68 145 13.0 0.0 0.00 0.00 0.00 37 1010.5
20260503205032 68 145 11.0 0.0 0.00 0.00 0.00 37 1010.5
20260503204531 68 132 11.0 0.0 0.00 0.00 0.00 37 1010.6
20260503204032 68 135 10.0 0.0 0.00 0.00 0.00 37 1010.6
20260503203532 68 140 10.0 0.0 0.00 0.00 0.00 37 1010.6
20260503203032 68 147 10.0 0.0 0.00 0.00 0.00 37 1010.6
20260503202532 68 135 10.0 0.0 0.00 0.00 0.00 37 1010.5
20260503202032 68 140 9.0 0.0 0.00 0.00 0.00 37 1010.6
20260503201532 68 140 11.0 0.0 0.00 0.00 0.00 37 1010.6
20260503201032 68 137 10.0 0.0 0.00 0.00 0.00 37 1010.7
20260503200531 68 137 9.0 0.0 0.00 0.00 0.00 37 1010.6
20260503200032 68 137 8.0 0.0 0.00 0.00 0.00 37 1010.7
20260503195532 68 125 6.0 0.0 0.00 0.00 0.00 37 1010.8
20260503195031 69 130 8.0 0.0 0.00 0.00 0.00 36 1010.8
20260503194532 69 127 7.0 0.0 0.00 0.00 0.00 35 1010.8
20260503194031 69 135 8.0 0.0 0.00 0.00 0.00 35 1010.8
20260503193531 69 127 9.0 0.0 0.00 0.00 0.00 34 1010.9
20260503193032 70 142 10.0 0.0 0.00 0.00 0.00 34 1010.9
20260503192531 70 135 8.0 0.0 0.00 0.00 0.00 34 1010.9
20260503192032 70 125 9.0 0.0 0.00 0.00 0.00 34 1010.9
20260503191531 70 125 9.0 0.0 0.00 0.00 0.00 34 1010.9
20260503191031 70 132 8.0 0.0 0.00 0.00 0.00 34 1011.0
20260503190531 70 132 8.0 0.0 0.00 0.00 0.00 34 1011.0
20260503190032 70 132 9.0 0.0 0.00 0.00 0.00 34 1011.0
20260503185532 70 130 7.0 0.0 0.00 0.00 0.00 34 1011.0
20260503185031 70 137 9.0 0.0 0.00 0.00 0.00 34 1011.0
20260503184532 70 130 8.0 0.0 0.00 0.00 0.00 34 1011.0
20260503184031 70 132 9.0 0.0 0.00 0.00 0.00 34 1010.9
20260503183531 70 130 8.0 0.0 0.00 0.00 0.00 34 1010.9
20260503183033 70 130 8.0 0.0 0.00 0.00 0.00 34 1011.0
20260503182531 70 135 7.0 0.0 0.00 0.00 0.00 34 1010.9
20260503182032 70 132 7.0 0.0 0.00 0.00 0.00 34 1010.9
20260503181532 71 140 8.0 0.0 0.00 0.00 0.00 34 1010.9
20260503181032 71 135 8.0 0.0 0.00 0.00 0.00 34 1010.9
20260503180532 71 145 8.0 0.0 0.00 0.00 0.00 34 1010.9
20260503180032 71 137 9.0 0.0 0.00 0.00 0.00 34 1011.0
20260503175532 71 135 8.0 0.0 0.00 0.00 0.00 34 1010.9
20260503175031 71 132 7.0 0.0 0.00 0.00 0.00 34 1011.0
20260503174531 71 130 7.0 0.0 0.00 0.00 0.00 35 1011.0
20260503174031 71 140 6.0 0.0 0.00 0.00 0.00 35 1011.0
20260503173532 71 125 7.0 0.0 0.00 0.00 0.00 35 1011.1
20260503173031 71 132 6.0 0.0 0.00 0.00 0.00 35 1011.1
20260503172532 71 132 6.0 0.0 0.00 0.00 0.00 36 1011.2
20260503172031 71 135 6.0 0.0 0.00 0.00 0.00 35 1011.2
20260503171532 72 125 6.0 0.0 0.00 0.00 0.00 35 1011.2
20260503171031 72 135 7.0 0.0 0.00 0.00 0.00 36 1011.2
20260503170532 72 135 7.0 0.0 0.00 0.00 0.00 36 1011.2
20260503150532 80 185 8.0 0.0 0.00 0.00 0.00 25 1012.2
20260503131031 80 195 12.0 0.0 0.00 0.00 0.00 24 1013.2
20260503130531 80 210 12.0 0.0 0.00 0.00 0.00 24 1013.2
20260503110531 80 192 14.0 0.0 0.00 0.00 0.00 25 1014.1
20260503081532 77 115 6.0 0.0 0.00 0.00 0.00 38 1014.8
20260503081031 76 127 6.0 0.0 0.00 0.00 0.00 38 1014.8
20260503080531 76 185 8.0 0.0 0.00 0.00 0.00 32 1014.8
20260503072532 73 192 10.0 0.0 0.00 0.00 0.00 35 1014.8
20260503072031 73 190 9.0 0.0 0.00 0.00 0.00 34 1014.7
20260503071531 73 187 9.0 0.0 0.00 0.00 0.00 35 1014.7
20260503071032 72 190 9.0 0.0 0.00 0.00 0.00 36 1014.7
20260503070531 71 200 9.0 0.0 0.00 0.00 0.00 36 1014.7
20260503055031 64 190 10.0 0.0 0.00 0.00 0.00 43 1014.7
20260503054531 64 187 10.0 0.0 0.00 0.00 0.00 42 1014.6
20260503054032 63 190 9.0 0.0 0.00 0.00 0.00 43 1014.7
20260503053531 62 190 9.0 0.0 0.00 0.00 0.00 43 1014.6
20260503053031 61 187 9.0 0.0 0.00 0.00 0.00 44 1014.6
20260503052532 61 187 9.0 0.0 0.00 0.00 0.00 44 1014.6
20260503052032 61 187 8.0 0.0 0.00 0.00 0.00 44 1014.5
20260503051531 61 190 9.0 0.0 0.00 0.00 0.00 43 1014.6
20260503051031 61 195 10.0 0.0 0.00 0.00 0.00 42 1014.6
20260503050531 60 205 10.0 0.0 0.00 0.00 0.00 43 1014.5
20260503050031 60 207 9.0 0.0 0.00 0.00 0.00 43 1014.5
20260503045532 60 195 9.0 0.0 0.00 0.00 0.00 43 1014.5
20260503045032 60 192 8.0 0.0 0.00 0.00 0.00 43 1014.5
20260503044532 60 187 8.0 0.0 0.00 0.00 0.00 42 1014.5
20260503044031 60 195 8.0 0.0 0.00 0.00 0.00 42 1014.5
20260503043531 60 197 9.0 0.0 0.00 0.00 0.00 41 1014.5
20260503043031 60 190 9.0 0.0 0.00 0.00 0.00 41 1014.5
20260503042532 60 192 10.0 0.0 0.00 0.00 0.00 40 1014.4
20260503042031 60 195 10.0 0.0 0.00 0.00 0.00 40 1014.4
20260503041532 60 207 9.0 0.0 0.00 0.00 0.00 40 1014.4
20260503041031 60 205 11.0 0.0 0.00 0.00 0.00 40 1014.4
20260503040532 60 205 9.0 0.0 0.00 0.00 0.00 40 1014.4
20260503040032 60 202 11.0 0.0 0.00 0.00 0.00 40 1014.4
20260503035532 60 195 10.0 0.0 0.00 0.00 0.00 40 1014.5
20260503035031 60 195 11.0 0.0 0.00 0.00 0.00 40 1014.4
20260503034532 59 200 11.0 0.0 0.00 0.00 0.00 41 1014.4
20260503034031 59 210 9.0 0.0 0.00 0.00 0.00 41 1014.4
20260503033532 59 200 10.0 0.0 0.00 0.00 0.00 41 1014.5
20260503033032 59 205 11.0 0.0 0.00 0.00 0.00 41 1014.5
20260503032531 58 205 10.0 0.0 0.00 0.00 0.00 42 1014.6
20260503032031 58 210 10.0 0.0 0.00 0.00 0.00 42 1014.6
20260503031532 58 207 10.0 0.0 0.00 0.00 0.00 42 1014.5
20260503031032 57 190 9.0 0.0 0.00 0.00 0.00 43 1014.5
20260503030531 57 197 8.0 0.0 0.00 0.00 0.00 44 1014.6
20260503030032 57 190 7.0 0.0 0.00 0.00 0.00 44 1014.6
20260503025531 57 192 8.0 0.0 0.00 0.00 0.00 43 1014.6
20260503025031 57 185 8.0 0.0 0.00 0.00 0.00 43 1014.7
20260503024532 57 187 8.0 0.0 0.00 0.00 0.00 43 1014.7
20260503024031 58 185 9.0 0.0 0.00 0.00 0.00 42 1014.8
20260503023531 58 192 9.0 0.0 0.00 0.00 0.00 42 1014.8
20260503023031 58 192 8.0 0.0 0.00 0.00 0.00 41 1014.8
20260503022531 59 197 10.0 0.0 0.00 0.00 0.00 40 1014.8
20260503022031 60 187 10.0 0.0 0.00 0.00 0.00 39 1014.8
20260503021531 60 180 12.0 0.0 0.00 0.00 0.00 39 1014.9
20260503021032 60 185 11.0 0.0 0.00 0.00 0.00 39 1014.9
20260503020531 60 182 11.0 0.0 0.00 0.00 0.00 39 1014.8
20260503020032 59 187 10.0 0.0 0.00 0.00 0.00 40 1014.9
20260503015531 58 185 10.0 0.0 0.00 0.00 0.00 41 1015.0
20260503015031 58 190 10.0 0.0 0.00 0.00 0.00 41 1015.0
20260503014532 58 187 9.0 0.0 0.00 0.00 0.00 42 1015.0
20260503014031 58 192 9.0 0.0 0.00 0.00 0.00 41 1015.0
20260503013531 58 192 10.0 0.0 0.00 0.00 0.00 41 1015.0
20260503013031 59 195 9.0 0.0 0.00 0.00 0.00 41 1015.1
20260503012532 59 200 9.0 0.0 0.00 0.00 0.00 40 1015.1
20260503012031 59 202 8.0 0.0 0.00 0.00 0.00 40 1015.1
20260503011532 60 185 9.0 0.0 0.00 0.00 0.00 39 1015.1
20260503011032 60 182 9.0 0.0 0.00 0.00 0.00 39 1015.1
20260503010531 60 182 9.0 0.0 0.00 0.00 0.00 39 1015.1
20260503010032 59 175 10.0 0.0 0.00 0.00 0.00 40 1015.1
20260503005531 59 182 9.0 0.0 0.00 0.00 0.00 40 1015.1
20260503005031 59 175 8.0 0.0 0.00 0.00 0.00 41 1015.2
20260503004532 59 172 8.0 0.0 0.00 0.00 0.00 41 1015.1
20260503004031 59 165 8.0 0.0 0.00 0.00 0.00 41 1015.2
20260503003531 59 160 8.0 0.0 0.00 0.00 0.00 42 1015.2
20260503003032 59 162 8.0 0.0 0.00 0.00 0.00 42 1015.2
20260503002532 59 165 9.0 0.0 0.00 0.00 0.00 42 1015.2
20260503002036 59 167 8.0 0.0 0.00 0.00 0.00 42 1015.2
20260503001531 59 160 10.0 0.0 0.00 0.00 0.00 42 1015.3
20260503001032 59 162 9.0 0.0 0.00 0.00 0.00 42 1015.3
20260503000531 59 157 9.0 0.0 0.00 0.00 0.00 43 1015.3
20260503000032 58 167 9.0 0.0 0.00 0.00 0.00 43 1015.4